EW8311 Weather Reports


Display with metric or nautical units.
time (UTC)temp
F
wind
direction
speed
MPH
gust
MPH
rain 1hr
in
rain 24hr
in
rain mn
in
humidity
%
barometer
mb
20260904030005 83 113 0.0 2.0 0.00 0.00 0.00 55 1005.1
20260904024505 83 279 0.0 4.0 0.00 0.00 0.00 55 1005.0
20260904023004 83 128 0.0 2.0 0.00 0.00 0.00 56 1004.6
20260904021504 83 108 0.0 0.0 0.00 0.00 0.00 56 1004.6
20260904020003 84 108 0.0 1.0 0.00 0.00 0.00 56 1004.5
20260904014502 84 108 0.0 4.0 0.00 0.00 0.00 54 1004.4
20260904013003 85 120 0.0 8.0 0.00 0.00 0.00 52 1004.3
20260904011504 88 193 3.0 7.0 0.00 0.00 0.00 48 1003.9
20260904010100 89 250 2.0 7.0 0.00 0.00 0.00 48 1003.6
20260904004604 89 327 2.0 5.0 0.00 0.00 0.00 46 1003.7
20260904003102 89 305 2.0 7.0 0.00 0.00 0.00 46 1003.6
20260904001601 89 318 2.0 7.0 0.00 0.00 0.00 47 1003.3
20260904000139 89 333 2.0 8.0 0.00 0.00 0.00 45 1003.6
20260903234558 89 325 2.0 6.0 0.00 0.00 0.00 45 1003.4
20260903233058 89 257 3.0 7.0 0.00 0.00 0.00 44 1003.4
20260903231612 90 257 1.0 6.0 0.00 0.00 0.00 43 1003.5
20260903230104 91 323 1.0 6.0 0.00 0.00 0.00 41 1003.4
20260903224558 93 291 3.0 7.0 0.00 0.00 0.00 39 1003.4
20260903223056 92 276 1.0 6.0 0.00 0.00 0.00 40 1003.4
20260903221554 94 325 1.0 4.0 0.00 0.00 0.00 36 1003.5
20260903220106 95 210 1.0 6.0 0.00 0.00 0.00 37 1003.8
20260903214552 93 322 0.0 5.0 0.00 0.00 0.00 39 1003.8
20260903213049 93 285 0.0 6.0 0.00 0.00 0.00 39 1004.1
20260903211544 91 238 2.0 8.0 0.00 0.00 0.00 41 1004.3
20260903210048 92 328 1.0 5.0 0.00 0.00 0.00 42 1004.4
20260903204539 91 132 0.0 4.0 0.00 0.00 0.00 42 1004.6
20260903203042 91 314 1.0 4.0 0.00 0.00 0.00 43 1004.9
20260903201533 91 266 2.0 5.0 0.00 0.00 0.00 43 1005.1
20260903200031 90 323 1.0 4.0 0.00 0.00 0.00 46 1005.5
20260903194541 88 326 1.0 7.0 0.00 0.00 0.00 47 1005.7
20260903193023 88 310 0.0 6.0 0.00 0.00 0.00 48 1005.9
20260903191536 87 288 2.0 7.0 0.00 0.00 0.00 49 1006.1
20260903190018 87 283 0.0 3.0 0.00 0.00 0.00 49 1006.5
20260903184521 87 326 1.0 5.0 0.00 0.00 0.00 51 1006.7
20260903183016 85 277 2.0 5.0 0.00 0.00 0.00 53 1006.9
20260903181531 87 268 1.0 4.0 0.00 0.00 0.00 52 1007.1
20260903180012 85 264 1.0 4.0 0.00 0.00 0.00 53 1007.2
20260903174511 85 309 0.0 4.0 0.00 0.00 0.00 52 1007.5
20260903173010 85 261 0.0 4.0 0.00 0.00 0.00 52 1007.6
20260903171519 85 242 1.0 3.0 0.00 0.00 0.00 54 1007.6
20260903170005 84 108 2.0 4.0 0.00 0.00 0.00 55 1007.5
20260903164503 83 262 1.0 4.0 0.00 0.00 0.00 59 1007.6
20260903163005 82 133 1.0 5.0 0.00 0.00 0.00 59 1007.7
20260903161604 81 116 0.0 2.0 0.00 0.00 0.00 61 1007.6
20260903160105 81 103 1.0 3.0 0.00 0.00 0.00 62 1007.8
20260903154558 80 96 0.0 2.0 0.00 0.00 0.00 64 1007.8
20260903153057 79 107 0.0 2.0 0.00 0.00 0.00 65 1007.8
20260903151559 79 99 1.0 3.0 0.00 0.00 0.00 66 1007.7
20260903150114 79 98 0.0 4.0 0.00 0.00 0.00 66 1007.7
20260903144555 79 108 0.0 1.0 0.00 0.00 0.00 67 1007.7
20260903143059 78 113 0.0 3.0 0.00 0.00 0.00 67 1007.7
20260903141557 78 122 0.0 2.0 0.00 0.00 0.00 68 1007.6
20260903140052 77 309 0.0 0.0 0.00 0.00 0.00 72 1007.5
20260903134550 77 309 0.0 0.0 0.00 0.00 0.00 71 1007.4
20260903133049 78 309 0.0 0.0 0.00 0.00 0.00 68 1007.2
20260903131548 78 309 0.0 0.0 0.00 0.00 0.00 64 1007.2
20260903130047 77 309 0.0 0.0 0.00 0.00 0.00 66 1007.0
20260903124558 77 309 0.0 0.0 0.00 0.00 0.00 66 1006.9
20260903123046 77 309 1.0 3.0 0.00 0.00 0.00 67 1006.7
20260903121548 77 351 0.0 1.0 0.00 0.00 0.00 69 1006.6
20260903120045 76 99 0.0 0.0 0.00 0.00 0.00 71 1006.5
20260903114604 77 102 0.0 0.0 0.00 0.00 0.00 71 1006.4
20260903113042 77 102 0.0 0.0 0.00 0.00 0.00 71 1006.4
20260903111548 77 102 0.0 0.0 0.00 0.00 0.00 71 1006.4
20260903110043 78 103 0.0 1.0 0.00 0.00 0.00 65 1006.5
20260903104538 77 274 0.0 0.0 0.00 0.00 0.00 68 1006.6
20260903103046 78 274 0.0 0.0 0.00 0.00 0.00 69 1006.7
20260903101543 78 272 0.0 0.0 0.00 0.00 0.00 68 1006.8
20260903100041 78 272 0.0 0.0 0.00 0.00 0.00 68 1006.8
20260903094536 77 272 0.0 1.0 0.00 0.00 0.00 71 1006.8
20260903093100 77 272 0.0 0.0 0.00 0.00 0.00 73 1006.8
20260903091534 77 272 0.0 0.0 0.00 0.00 0.00 72 1006.8
20260903090037 77 272 0.0 0.0 0.00 0.00 0.00 71 1006.7
20260903084530 77 272 0.0 0.0 0.00 0.00 0.00 71 1006.8
20260903083030 77 124 0.0 0.0 0.00 0.00 0.00 71 1006.8
20260903081534 78 124 0.0 0.0 0.00 0.00 0.00 69 1006.9
20260903080023 80 124 0.0 0.0 0.00 0.00 0.00 62 1006.9
20260903074526 80 116 0.0 2.0 0.00 0.00 0.00 61 1007.0
20260903073023 80 97 0.0 1.0 0.00 0.00 0.00 61 1007.0
20260903071517 81 98 1.0 4.0 0.00 0.00 0.00 58 1007.0
20260903070017 81 315 0.0 1.0 0.00 0.00 0.00 58 1006.7
20260903064513 81 300 0.0 0.0 0.00 0.00 0.00 58 1006.6
20260903063013 82 291 0.0 1.0 0.00 0.00 0.00 56 1006.7
20260903061512 82 291 0.0 1.0 0.00 0.00 0.00 55 1006.8
20260903060015 81 291 0.0 0.0 0.00 0.00 0.00 57 1006.8
20260903054513 82 291 0.0 0.0 0.00 0.00 0.00 55 1006.9
20260903053011 82 291 0.0 2.0 0.00 0.00 0.00 55 1007.0
20260903051511 80 306 2.0 4.0 0.00 0.00 0.00 57 1007.0
20260903050010 81 98 0.0 0.0 0.00 0.00 0.00 59 1006.9
20260903044510 81 98 0.0 0.0 0.00 0.00 0.00 55 1006.9
20260903043015 82 98 0.0 0.0 0.00 0.00 0.00 54 1006.7
20260903041517 82 98 0.0 0.0 0.00 0.00 0.00 57 1006.6
20260903040009 83 49 0.0 1.0 0.00 0.00 0.00 53 1006.6
20260903034513 83 107 0.0 0.0 0.00 0.00 0.00 54 1006.5
20260903033007 84 107 0.0 1.0 0.00 0.00 0.00 49 1006.4
20260903031506 83 83 0.0 1.0 0.00 0.00 0.00 52 1006.1